FW8687 Weather Reports


time (UTC)temp
F
wind
direction
speed
knots
gust
knots
rain 1hr
in
rain 24hr
in
rain mn
in
humidity
%
barometer
mb
20260506171122 79 249 2.6 5.2 0.00 0.00 0.00 68 1014.6
20260506165122 78 240 1.7 4.3 0.00 0.00 0.00 68 1014.8
20260506163118 77 60 0.0 1.7 0.00 0.00 0.00 70 1015.2
20260506161116 75 216 1.7 2.6 0.00 0.00 0.00 72 1015.2
20260506155116 75 116 0.9 5.2 0.00 0.00 0.00 71 1014.8
20260506151902 74 182 1.7 6.1 0.00 0.00 0.00 73 1014.8
20260506145901 73 233 2.6 2.6 0.00 0.00 0.00 74 1014.9
20260506143901 72 296 0.9 2.6 0.00 0.00 0.00 75 1014.9
20260506141858 70 108 0.9 1.7 0.00 0.00 0.00 78 1014.9
20260506135853 69 197 0.9 6.1 0.00 0.00 0.00 79 1014.8
20260506133851 69 288 1.7 8.7 0.00 0.00 0.00 79 1015.0
20260506131851 69 296 1.7 6.1 0.00 0.00 0.00 77 1014.9
20260506125850 68 233 1.7 1.7 0.00 0.00 0.00 80 1014.5
20260506123846 67 269 1.7 5.2 0.00 0.00 0.00 83 1014.5
20260506121842 66 263 1.7 2.6 0.00 0.00 0.00 86 1014.4
20260506115843 65 177 0.9 5.2 0.00 0.00 0.00 88 1014.1
20260506113840 63 244 1.7 1.7 0.00 0.00 0.00 90 1013.9
20260506111840 62 120 0.0 0.9 0.00 0.00 0.00 92 1013.7
20260506105835 61 134 0.0 1.7 0.00 0.00 0.00 93 1013.8
20260506103835 60 120 0.0 0.0 0.00 0.00 0.00 93 1013.6
20260506101831 60 119 0.0 0.0 0.00 0.00 0.00 93 1013.7
20260506095827 60 333 0.0 0.0 0.00 0.00 0.00 92 1013.9
20260506093823 60 146 0.0 0.0 0.00 0.00 0.00 91 1013.8
20260506091823 60 146 0.0 0.0 0.00 0.00 0.00 90 1014.1
20260506085818 60 146 0.0 0.0 0.00 0.00 0.00 89 1014.0
20260506083816 61 146 0.0 0.0 0.00 0.00 0.00 87 1014.6
20260506081816 62 295 0.0 0.0 0.00 0.00 0.00 86 1014.4
20260506071807 61 146 0.0 0.0 0.00 0.00 0.00 86 1013.8
20260506061755 62 135 0.0 0.9 0.00 0.00 0.00 82 1014.7
20260506043741 64 133 0.9 1.7 0.00 0.00 0.00 80 1014.9
20260506041739 65 146 0.0 0.0 0.00 0.00 0.00 79 1015.0
20260506035738 65 162 0.9 1.7 0.00 0.00 0.00 78 1015.2
20260506033738 64 121 0.0 0.0 0.00 0.00 0.00 80 1014.9
20260506031737 65 103 0.0 0.0 0.00 0.00 0.00 79 1014.6
20260506025732 66 61 0.0 0.9 0.00 0.00 0.00 77 1015.0
20260506023731 67 134 0.0 0.0 0.00 0.00 0.00 76 1015.2
20260506021726 68 133 0.0 1.7 0.00 0.00 0.00 74 1014.9
20260506015721 68 122 0.9 1.7 0.00 0.00 0.00 73 1015.0
20260506013720 69 84 0.0 0.9 0.00 0.00 0.00 72 1014.5
20260506011719 69 142 0.0 1.7 0.00 0.00 0.00 69 1014.3
20260506005714 70 137 0.9 2.6 0.00 0.00 0.00 67 1013.6
20260506003711 71 74 0.0 0.9 0.00 0.00 0.00 64 1013.6
20260506001707 73 101 0.0 2.6 0.00 0.00 0.00 61 1013.5
20260505235702 74 143 0.0 1.7 0.00 0.00 0.00 58 1013.5
20260505233702 75 124 0.9 1.7 0.00 0.00 0.00 57 1013.7
20260505231657 77 280 0.9 1.7 0.00 0.00 0.00 55 1013.4
20260505225652 78 111 0.0 1.7 0.00 0.00 0.00 54 1013.3
20260505223652 79 15 0.9 1.7 0.00 0.00 0.00 51 1013.2
20260505221649 81 130 1.7 1.7 0.00 0.00 0.00 47 1013.2
20260505215649 81 143 2.6 4.3 0.00 0.00 0.00 46 1013.3
20260505213645 82 104 0.9 2.6 0.00 0.00 0.00 44 1013.2
20260505211644 83 141 0.9 5.2 0.00 0.00 0.00 42 1013.6
20260505205644 84 137 1.7 4.3 0.00 0.00 0.00 40 1013.5
20260505203639 83 192 0.9 4.3 0.00 0.00 0.00 40 1013.7
20260505201636 82 156 0.9 1.7 0.00 0.00 0.00 40 1013.8
20260505195631 83 271 4.3 7.0 0.00 0.00 0.00 42 1014.0
20260505193630 83 104 0.9 5.2 0.00 0.00 0.00 43 1014.5
20260505191627 83 94 2.6 4.3 0.00 0.00 0.00 42 1014.7
20260505185624 81 123 0.0 1.7 0.00 0.00 0.00 44 1015.3
20260505183622 82 243 0.9 2.6 0.00 0.00 0.00 40 1015.3
20260505181620 81 244 3.5 7.0 0.00 0.00 0.00 42 1015.2
20260505175619 81 274 5.2 7.8 0.00 0.00 0.00 43 1015.4
20260505173617 82 224 0.0 0.9 0.00 0.00 0.00 38 1015.5
20260505171614 81 195 0.9 2.6 0.00 0.00 0.00 45 1015.8